Home > Weather > Ilanz > Past weeks

Flag for Switzerland Past Weather in Ilanz, Graubünden, Switzerland — Yesterday and Last 2 Weeks

Now
62 °F

Mild.


Feels Like: 62 °F
Forecast: 56 / 63 °F
Wind: 2 mph from Northeast

Location: Chur

Current Time: Jun 25, 2016 at 7:11:11 AM

Latest Report: Jun 25, 2016 at 6:00 AM


Visibility: N/A

Pressure: 29.98 "Hg (27.60 "Hg at 703m altitude)

Humidity: 91%

Dew Point: 60 °F

Location of IlanzLocation

Past Weather in Ilanz — Graph

°F

Ilanz Temperature Yesterday

Maximum temperature yesterday: 88 °F (at 3:00 PM)
Minimum temperature yesterday: 63 °F (at 7:00 AM)
Average temperature yesterday: 76 °F

High & Low Weather Summary for the Past Weeks

 TemperatureHumidityPressure
High88 °F (Jun 23, 4:00 PM)97% (Jun 12, 2:00 AM)30.31 "Hg (Jun 12, 2:00 AM)
Low44 °F (Jun 17, 6:00 AM)33% (Jun 10, 3:00 PM)29.54 "Hg (Jun 14, 1:00 PM)
Average62 °F75%29.93 "Hg
* Reported Jun 10 5:00 AM — Jun 25 5:00 AM, Ilanz, Weather by CustomWeather, © 2016

Note: Actual official high and low records may vary slightly from our data, if they occured in-between our weather recording intervals... More about our weather records

Advertising

Ilanz Weather History for the Previous 24 Hours

Scroll right to see more
 ConditionsComfort  
Time TempWeatherWind HumidityBarometerVisibility
5:00 AM
Sat, Jun 25
63 °FPassing clouds.5 mph89%29.96 "Hg9 mi
4:00 AM64 °FMild.2 mph88%29.95 "HgN/A
3:00 AM64 °FMild.No wind91%29.97 "HgN/A
2:00 AM65 °FMild.1 mph88%29.98 "HgN/A
1:00 AM67 °FMild.2 mph82%30.00 "HgN/A
12:00 AM69 °FMild.2 mph82%29.99 "HgN/A
11:00 PM
Fri, Jun 24
69 °FMild.2 mph87%29.99 "HgN/A
10:00 PM72 °FMild.3 mph74%30.00 "HgN/A
9:00 PM73 °FMild.2 mph74%29.97 "HgN/A
7:00 PM82 °FWarm.5 mph55%29.89 "HgN/A
6:00 PM87 °FWarm.12 mph43%29.87 "HgN/A
5:00 PM87 °FPartly sunny.8 mph45%29.87 "Hg11 mi
4:00 PM88 °FHot.15 mph42%29.87 "HgN/A
3:00 PM88 °FHot.14 mph43%29.88 "HgN/A
2:00 PM87 °FScattered clouds.12 mph45%29.91 "Hg12 mi
1:00 PM86 °FWarm.14 mph46%29.94 "HgN/A
12:00 PM83 °FWarm.6 mph55%29.98 "HgN/A
11:00 AM80 °FHaze.2 mph54%30.02 "Hg9 mi
10:00 AM76 °FMild.1 mph57%30.06 "HgN/A
9:00 AM72 °FMild.1 mph63%30.09 "HgN/A
8:00 AM68 °FPassing clouds.3 mph69%30.11 "Hg11 mi
7:00 AM63 °FMild.1 mph84%30.13 "HgN/A
Weather by CustomWeather, © 2016

See weather overviewHow to use our weather pages